Tracking 19572 objects as of 23-Feb-2019
HD Live streaming from Space Station
objects crossing your sky now

COSMOS 2219

Track COSMOS 2219 now!
10-day predictions
COSMOS 2219 is classified as:


NORAD ID: 22219
Int'l Code: 1992-076A
Perigee: 841.2 km
Apogee: 867.0 km
Inclination: 71.1 °
Period: 101.9 minutes
Semi major axis: 7225 km
RCS: 7.421 m2 (large)
Launch date: November 17, 1992
Source: Commonwealth of Independent States (former USSR) (CIS)
Launch site: TYURATAM MISSILE AND SPACE COMPLEX (TTMTR)
aabbcc
Your satellite tracking list
Your tracking list is empty




NASA's NSSDC Master Catalog

Two Line Element Set (TLE):
1 22219U 92076A   19054.17656451 -.00000291  00000-0 -12922-3 0  9997
2 22219  71.0624 350.9850 0017858 177.0229 183.1003 14.13637733355260
Source of the keplerian elements: AFSPC